Regional Weather Roundup
Issued by NWS Cleveland, OH

Home | Current Version | Previous Version | Text Only | Print | Product List | Glossary Off
Versions: 1 2 3 4 5 6 7 8 9 10 11 12 13 14 15 16 17 18 19 20 21 22 23 24 25 26 27 28 29 30 31 32 33 34 35 36 37 38 39 40 41 42 43 44 45 46 47 48 49 50

000
ASUS41 KCLE 192002
RWRCLE
OHIO REGIONAL WEATHER ROUNDUP
NATIONAL WEATHER SERVICE CLEVELAND, OH
300 PM EST MON FEB 19 2018

NOTE: "FAIR" INDICATES FEW OR NO CLOUDS BELOW 12,000 FEET WITH NO
SIGNIFICANT WEATHER AND/OR OBSTRUCTIONS TO VISIBILITY.

OHZ001>008-015>018-024>027-034-035-043-044-192100-
   NORTHWEST OHIO

CITY           SKY/WX    TMP DP  RH WIND       PRES   REMARKS
DEFIANCE       LGT RAIN  56  54  93 S13       29.91F
FINDLAY        LGT RAIN  59  55  87 S16G28    29.95F
TOLEDO EXPRESS RAIN      55  55 100 S10       29.92S FOG
TOLEDO EXEC    LGT RAIN  55  53  93 S18       29.94S FOG
LIMA           LGT RAIN  60  58  92 S15       29.96F
$$

OHZ009>014-019>023-028>033-038-089-192100-
   NORTHEAST OHIO

CITY           SKY/WX    TMP DP  RH WIND       PRES   REMARKS
CLE-HOPKINS    LGT RAIN  55  52  89 S13       30.04F
CLE-LAKEFRONT  LGT RAIN  56  52  86 S16G28    30.00F
CUY CO. ARPT   CLOUDY    55  54  94 SW16      30.03S FOG
LORAIN-ELYRIA  LGT RAIN  50  46  86 S14       30.01F FOG
ASHTABULA      LGT RAIN  50  50 100 S12       30.05F FOG
AKRON-CANTON   CLOUDY    55  52  89 S9        30.08S
WOOSTER        RAIN      52  52 100 S9        30.07S FOG
MANSFIELD      LGT RAIN  57  57 100 S14       30.03F
YOUNGSTOWN     LGT RAIN  51  50  96 S7        30.08S
$$

OHZ042-051>053-060>062-070>072-077>081-192100-
  SOUTHWEST OHIO

CITY           SKY/WX    TMP DP  RH WIND       PRES   REMARKS
CINC-COVINGTON CLOUDY    72  59  63 SW12      30.02F
CINC-LUNKEN    CLOUDY    74  58  57 SW18G24   30.03F
HAMILTON       CLOUDY    74  58  57 SW13G25   30.02F
DAYTON         PTSUNNY   67  60  78 SW20      30.02F
WRIGHT-PAT AFB PTSUNNY   69  60  74 SW16      30.01F
DAYTON GENERAL PTSUNNY   72  57  59 SW15G21   30.02F
WILMINGTON     CLOUDY    70  59  68 SW21G26   30.04F
$$

OHZ036-037-039>041-045>050-054>059-063>069-073>076-082>088-192100-
  CENTRAL AND SOUTHEAST OHIO

CITY           SKY/WX    TMP DP  RH WIND       PRES   REMARKS
COLUMBUS       CLOUDY    64  58  80 S9        30.05F
OSU AIRPORT    FAIR      63  60  90 S8        30.04F
BOLTON FIELD   PTSUNNY   64  59  82 S10G16    30.05F
RICKENBACK AFB CLOUDY    63  58  84 S7        30.05F
NEWARK         PTSUNNY   63  55  75 S9        30.06F
MARION         LGT RAIN  57  55  93 S13       30.02F FOG
LANCASTER      PTSUNNY   66  57  72 S10       30.07F
ZANESVILLE     FAIR      65  55  70 SW9       30.10R
NEW PHILLY     NOT AVBL
$$



USA.gov is the U.S. government's official web portal to all federal, state and local government web resources and services.